Regional Weather Roundup
Issued by NWS

Home | Current Version | Previous Version | Text Only | Print | Product List | Glossary Off
Versions: 1 2 3 4 5 6 7 8 9 10 11 12 13 14 15 16 17 18 19 20 21 22 23 24 25 26 27 28 29 30 31 32 33 34 35 36 37 38 39 40 41 42 43 44 45 46 47 48 49 50

000
ASUS45 KTFX 021110
RWRMT
MONTANA REGIONAL WEATHER ROUNDUP
NATIONAL WEATHER SERVICE GREAT FALLS MT
500 AM MDT THU JUL 02 2015

NOTE: "FAIR" INDICATES FEW OR NO CLOUDS BELOW 12000 FEET WITH NO
SIGNIFICANT WEATHER AND/OR OBSTRUCTIONS TO VISIBILITY.

MTZ001>007-043-021200-
WEST OF THE DIVIDE

CITY           SKY/WX    TMP DP  RH WIND       PRES   REMARKS
KALISPELL      SUNNY     66  51  58 N8        30.09S
MISSOULA       CLEAR     71  51  49 E13       30.11R
BUTTE          CLEAR     52  46  80 SE5       30.27R
MULLAN PASS    CLEAR     66  40  38 CALM      30.24R
DEER LODGE       N/A     61  50  67 NW6       30.26R
EUREKA           N/A     61  54  77 CALM      30.11R
HAMILTON         N/A     59  43  55 S7        30.12S
PLAINS           N/A     57  45  64 CALM      30.07R
RONAN            N/A     60  53  77 CALM      30.13R
$$

MTZ008-052>055-021200-
SOUTHWEST MONTANA

CITY           SKY/WX    TMP DP  RH WIND       PRES   REMARKS
BOZEMAN        CLEAR     59  51  75 CALM      30.20R
DILLON         CLEAR     56  48  74 E9        30.21S
W YELLOWSTONE  CLEAR     43  39  87 CALM      30.28R
THREE FORKS      N/A     60  60 100 CALM      30.17R
TWIN BRIDGES     N/A     64  48  56 N15       30.16R
$$

MTZ009-010-012-014-046-048-049-054-021200-
EAST SLOPES AND CENTRAL MONTANA

CITY           SKY/WX    TMP DP  RH WIND       PRES   REMARKS
CUT BANK       CLEAR     51  49  92 NW6       30.21S
GREAT FALLS    CLEAR     55  50  83 SW6       30.20R
MALMSTROM AFB  CLEAR     63  53  69 W5        30.20R
HELENA         PTCLDY    65  51  60 W8        30.21R
$$

MTZ011-013-016-021-045-047-050-051-021200-
NORTH CENTRAL MONTANA

CITY           SKY/WX    TMP DP  RH WIND       PRES   REMARKS
HAVRE          CLEAR     53  51  93 SW7       30.14R
LEWISTOWN      CLEAR     58  51  78 SW5       30.21R
CHINOOK          N/A     57  55  94 W6        30.12S
FORT BENTON      N/A     57  52  82 CALM      30.18R
$$

MTZ017>020-022>027-061-062-021200-
NORTHEAST MONTANA

CITY           SKY/WX    TMP DP  RH WIND       PRES   REMARKS
GLASGOW        CLEAR     57  53  86 W7        30.06R
JORDAN           N/A     56  52  86 W7        30.09R
SIDNEY         CLEAR     57  54  88 CALM      30.02S
WOLF POINT     PTCLDY    57  54  89 SW6       30.03S
MALTA            N/A     56  52  86 CALM      30.04S
PLENTYWOOD       N/A     55  55 100 N3        30.01S
SCOBEY           N/A     53  49  86 CALM      30.03R
$$

MTZ028>42-056>058-021200-
SOUTHCENTRAL AND SOUTHEAST MONTANA

CITY           SKY/WX    TMP DP  RH WIND       PRES   REMARKS
BAKER          FOG       58  57  97 W7        30.08R VSB 3/4
BILLINGS       PTCLDY    64  54  69 NW6       30.17R
LIVINGSTON     CLEAR     60  51  72 NW7       30.21R
MILES CITY     CLEAR     59  55  87 W8        30.08R
EKALAKA          N/A     58  55  89 CALM      30.07R
FORSYTH          N/A     63  61  94 W3        30.10R
LAUREL           N/A     62  50  65 CALM      30.14R
ROUNDUP          N/A     61  54  77 CALM      30.07R
$$

REGIONAL REPORTS...DAKOTAS

CITY           SKY/WX    TMP DP  RH WIND       PRES   REMARKS
WILLISTON      CLEAR     56  53  90 W3        30.00R
MINOT          MOCLDY    61  59  93 CALM      29.94S FOG
DICKINSON      PTCLDY    57  55  93 W6        30.01R FOG
BEACH          FAIR      55  55 100 W3        30.06S
CROSBY         FAIR      57  57 100 CALM      30.00R FOG
BISMARCK       LGT RAIN  62  61  96 NE5       29.97S
GRAND FORKS    PTCLDY    57  55  93 SE6       29.95S
FARGO          CLEAR     59  54  83 SE7       29.98S
BUFFALO SD       N/A     60  59  96 NW7       30.00R
RAPID CITY     CLEAR     63  61  93 N15       30.04R
$$

REGIONAL REPORTS...WYOMING/IDAHO/WASHINGTON

CITY           SKY/WX    TMP DP  RH WIND       PRES   REMARKS
GILLETTE       CLEAR     59  55  87 CALM      30.16R
SHERIDAN       CLEAR     56  53  90 NW6       30.16R
BUFFALO WY     CLEAR     58  53  84 W5        30.20S
CODY           CLEAR     63  45  51 W6        30.22R
YELLOWSTONE LA   N/A     44  39  82 CALM      30.37S
IDAHO FALLS    CLEAR     59  54  83 N8        30.10R
SALMON         CLEAR     55  45  67 CALM      30.13R
BOISE          CLEAR     72  50  45 S3        29.98R
SPOKANE        PTCLDY    72  46  39 CALM      30.01R
$$

REGIONAL REPORTS...ALBERTA

CITY           SKY/WX    TMP DP  RH WIND       PRES   REMARKS
EDMONTON       CLEAR     57  52  82 SW5       30.09S
CALGARY        PTCLDY    54  52  94 N5        30.19R
LETHBRIDGE     CLEAR     54  52  94 SW5       30.17S
MEDICINE HAT   CLEAR     55  54  94 S6        30.13R FOG
WATERTON GATE    N/A     46  46 100 SW5         N/A
CARDSTON         N/A     54  52  94 S2          N/A
MILK RIVER       N/A     52  50  93 W7          N/A
ONEFOUR          N/A     57  54  88 NW10        N/A
$$

REGIONAL REPORTS...SASKATCHEWAN

CITY           SKY/WX    TMP DP  RH WIND       PRES   REMARKS
SWIFT CURRENT  FOG       61 N/A N/A NW12      30.07R VSB 1/8
REGINA         PTCLDY    54  54 100 W5        30.00S FOG
SASKATOON      FOG       57  57 100 W7        30.02R VSB 1
CYPRESS HILLS    N/A     55  54  94 N5          N/A
VAL MARIE        N/A     57  55  94 NW7         N/A
ROCKGLEN         N/A     57  57 100 W5          N/A
ASSINIBOIA       N/A     55  54  94 SW5         N/A
$$


USA.gov is the U.S. government's official web portal to all federal, state and local government web resources and services.